OPTUS D1

Last updated on Dec. 5, 2020, 6:14 a.m. UTC

1 29495U 06043B   20339.78296851 -.00000094  00000-0  00000-0 0  9999
2 29495   0.0192  57.5777 0003710 195.5996 262.7606  1.00271842 51860
UTC
Height (km)
Latitude
Longitude
Inclination
Orbital Period
UTC large
Height (km)
Speed (km/s)
/
Latitude / Longitude
Inclination (degrees)
Orbital Period (minutes)
Azimuth
Elevation
Range (km)
Doppler Factor
iOS Compass Heading
iOS Angle

Next 30 passes for location: Hong Kong

Rise time Rise Azimuth (degrees) Set time Set Azimuth (degrees) Duration Max altitude (degrees)

No matching passes for this satellites